Dallas Love, TX

10:55 PM CDT on August 19, 2017 (GMT -0500)
Dallas Love

Weather History for KDAL - October, 2012

Change the Weather History Date:

Friday, October 26, 2012

  Actual Average Record
Temperature  
Mean Temperature 52 °F -  
Max Temperature 55 °F 73 °F 88 °F (2014)
Min Temperature 46 °F 55 °F 41 °F (2007)
Degree Days  
Heating Degree Days 14    
Growing Degree Days 2 (Base 50)    
Moisture  
Dew Point 36 °F    
Average Humidity 57    
Maximum Humidity 71    
Minimum Humidity 43    
Precipitation  
Precipitation 0.00 in - - ()
Sea Level Pressure  
Sea Level Pressure 30.23 in    
Wind  
Wind Speed 16 mph (North)    
Max Wind Speed 20 mph    
Max Gust Speed 30 mph    
Visibility 10 miles    
Events Rain    
Averages and records for this station are not official NWS values.
T = Trace of Precipitation, MM = Missing Value Source: NWS Daily Summary

Daily Weather History Graph

Daily Weather History Graph

Search for Another Location

Airport or City:

Trip Planner

Search our weather history database for the weather conditions in past years. The results will help you decide how hot, cold, wet, or windy it might be!

Date:

Astronomy

Oct. 26, 2012 Rise Set
Actual Time 7:40 AM CDT 6:41 PM CDT
Civil Twilight 7:15 AM CDT 7:06 PM CDT
Nautical Twilight 6:46 AM CDT 7:35 PM CDT
Astronomical Twilight 6:17 AM CDT 8:04 PM CDT
Moon 4:51 PM CDT (10/26) 4:46 AM CDT (10/26)
Length of Visible Light 11h 51m
Length of Day
11h 00m
Waxing Gibbous, 91% of the Moon is Illuminated
Oct 26
Waxing Gibbous
Oct 29
Full
Nov 6
Last Quarter
Nov 13
New
Nov 20
First Quarter

Hourly Weather History & Observations

Time (CDT) Temp. Dew Point Humidity Pressure Visibility Wind Dir Wind Speed Gust Speed Precip Events Conditions
12:53 AM 54.0 °F 39.0 °F 57% 30.09 in 10.0 mi North 17.3 mph 23.0 mph N/A   Overcast
1:53 AM 53.1 °F 37.9 °F 57% 30.10 in 10.0 mi NNE 19.6 mph 28.8 mph N/A   Overcast
2:53 AM 51.1 °F 42.1 °F 71% 30.12 in 10.0 mi North 10.4 mph - 0.00 in Rain Light Rain
3:53 AM 51.1 °F 39.9 °F 66% 30.11 in 10.0 mi North 12.7 mph 21.9 mph N/A   Overcast
4:53 AM 51.1 °F 37.9 °F 61% 30.12 in 10.0 mi North 13.8 mph 24.2 mph N/A   Overcast
5:53 AM 50.0 °F 37.0 °F 61% 30.14 in 10.0 mi North 16.1 mph 24.2 mph N/A   Overcast
6:53 AM 50.0 °F 37.0 °F 61% 30.17 in 10.0 mi North 17.3 mph 21.9 mph N/A   Mostly Cloudy
7:42 AM 48.2 °F 37.4 °F 66% 30.20 in 10.0 mi NNE 17.3 mph 24.2 mph N/A   Overcast
7:53 AM 48.9 °F 37.9 °F 66% 30.20 in 10.0 mi North 17.3 mph 25.3 mph 0.00 in Rain Light Rain
8:53 AM 48.9 °F 37.0 °F 64% 30.22 in 10.0 mi North 19.6 mph 24.2 mph 0.00 in   Overcast
9:05 AM 48.2 °F 37.4 °F 66% 30.24 in 10.0 mi North 16.1 mph 24.2 mph N/A   Mostly Cloudy
9:35 AM 48.2 °F 37.4 °F 66% 30.25 in 10.0 mi North 18.4 mph 28.8 mph N/A   Mostly Cloudy
9:53 AM 50.0 °F 37.4 °F 62% 30.25 in 10.0 mi North 16.1 mph 26.5 mph N/A   Overcast
10:04 AM 50.0 °F 37.4 °F 62% 30.25 in 10.0 mi NNE 15.0 mph 25.3 mph N/A   Overcast
10:28 AM 50.0 °F 37.4 °F 62% 30.25 in 10.0 mi North 19.6 mph 26.5 mph N/A   Overcast
10:53 AM 50.0 °F 37.9 °F 63% 30.26 in 10.0 mi North 16.1 mph 26.5 mph N/A   Overcast
11:53 AM 51.1 °F 37.9 °F 61% 30.27 in 10.0 mi North 15.0 mph 21.9 mph N/A   Overcast
12:53 PM 52.0 °F 37.9 °F 59% 30.28 in 10.0 mi North 13.8 mph 25.3 mph N/A   Overcast
1:32 PM 51.8 °F 37.4 °F 58% 30.28 in 10.0 mi NNW 15.0 mph 23.0 mph N/A   Overcast
1:53 PM 52.0 °F 37.0 °F 57% 30.26 in 10.0 mi North 18.4 mph 29.9 mph N/A   Overcast
2:53 PM 53.1 °F 36.0 °F 52% 30.26 in 10.0 mi North 16.1 mph 27.6 mph N/A   Mostly Cloudy
3:53 PM 55.0 °F 34.0 °F 45% 30.25 in 10.0 mi NNE 15.0 mph 23.0 mph N/A   Partly Cloudy
4:53 PM 55.0 °F 33.1 °F 43% 30.23 in 10.0 mi North 16.1 mph 24.2 mph N/A   Partly Cloudy
5:53 PM 54.0 °F 32.0 °F 43% 30.24 in 10.0 mi North 17.3 mph 27.6 mph N/A   Partly Cloudy
6:53 PM 53.1 °F 32.0 °F 45% 30.26 in 10.0 mi North 15.0 mph 21.9 mph N/A   Partly Cloudy
7:53 PM 51.1 °F 32.0 °F 48% 30.29 in 10.0 mi North 9.2 mph - N/A   Clear
8:53 PM 50.0 °F 30.9 °F 48% 30.30 in 10.0 mi North 6.9 mph - N/A   Partly Cloudy
9:53 PM 48.9 °F 30.9 °F 50% 30.32 in 10.0 mi North 8.1 mph - N/A   Partly Cloudy
10:53 PM 48.9 °F 30.0 °F 48% 30.32 in 10.0 mi North 9.2 mph - N/A   Clear
11:53 PM 46.9 °F 28.9 °F 50% 30.32 in 10.0 mi NNE 10.4 mph - N/A   Clear